Home > Weather > Odesa > Past weeks

Flag for Ukraine Past Weather in Odesa, Ukraine — Yesterday and Last 2 Weeks

Now
90 °F

Passing clouds.


Feels Like: 88 °F
Forecast: 70 / 88 °F
Wind: 8 mph from Southeast

Location: Odesa Airport

Current Time: Jul 28, 2016 at 3:36:26 PM

Latest Report: Jul 28, 2016 at 3:00 PM


Visibility: N/A

Pressure: 29.98 "Hg

Humidity: 31%

Dew Point: 55 °F

Location of OdesaLocation

Past Weather in Odesa — Graph

°F

Odesa Temperature Yesterday

Maximum temperature yesterday: 90 °F (at 12:30 PM)
Minimum temperature yesterday: 70 °F (at 4:30 AM)
Average temperature yesterday: 81 °F

High & Low Weather Summary for the Past Weeks

 TemperatureHumidityPressure
High95 °F (Jul 15, 2:00 PM)100% (Jul 17, 1:30 AM)30.01 "Hg (Jul 17, 1:30 AM)
Low55 °F (Jul 20, 4:30 AM)23% (Jul 15, 2:00 PM)29.65 "Hg (Jul 18, 3:00 AM)
Average76 °F57%29.88 "Hg
* Reported Jul 13 2:00 PM — Jul 28 2:00 PM, Odesa, Weather by CustomWeather, © 2016

Note: Actual official high and low records may vary slightly from our data, if they occured in-between our weather recording intervals... More about our weather records

Advertising

Odesa Weather History for the Previous 24 Hours

Scroll right to see more
 ConditionsComfort  
Time TempWeatherWind HumidityBarometerVisibility
2:00 PM
Thu, Jul 28
91 °FScattered clouds.8 mph32%29.98 "HgN/A
1:30 PM91 °FScattered clouds.6 mph30%29.98 "HgN/A
1:00 PM90 °FScattered clouds.6 mph31%29.98 "HgN/A
12:30 PM90 °FScattered clouds.6 mph31%29.98 "HgN/A
12:00 PM90 °FScattered clouds.6 mph31%29.98 "HgN/A
11:30 AM90 °FPassing clouds.6 mph33%30.01 "HgN/A
11:00 AM88 °FPassing clouds.6 mph35%30.01 "HgN/A
10:30 AM88 °FPassing clouds.6 mph38%30.01 "HgN/A
10:00 AM86 °FPassing clouds.6 mph40%30.01 "HgN/A
9:30 AM84 °FPassing clouds.6 mph43%30.01 "HgN/A
9:00 AM82 °FPassing clouds.6 mph45%29.98 "HgN/A
8:30 AM81 °FSunny.6 mph48%29.98 "Hg10 mi
8:00 AM79 °FPassing clouds.6 mph54%29.98 "HgN/A
7:30 AM75 °FSunny.3 mph61%29.98 "Hg6 mi
7:00 AM73 °FSunny.3 mph65%29.98 "Hg5 mi
6:30 AM72 °FClear.6 mph65%29.98 "Hg6 mi
6:00 AM72 °FClear.6 mph69%29.98 "Hg5 mi
5:30 AM70 °FClear.6 mph73%29.98 "Hg5 mi
5:00 AM68 °FClear.3 mph78%29.98 "Hg10 mi
4:30 AM70 °FClear.3 mph73%29.98 "Hg10 mi
4:00 AM70 °FClear.3 mph73%29.98 "Hg10 mi
3:30 AM72 °FClear.3 mph69%29.98 "Hg10 mi
3:00 AM72 °FClear.3 mph65%29.98 "Hg10 mi
2:30 AM72 °FClear.3 mph61%29.98 "Hg10 mi
2:00 AM72 °FClear.6 mph61%29.98 "Hg6 mi
1:30 AM75 °FClear.6 mph54%29.98 "Hg10 mi
1:00 AM72 °FClear.6 mph61%29.98 "Hg4 mi
12:30 AM73 °FClear.6 mph57%29.98 "Hg10 mi
12:00 AM72 °FClear.No wind57%29.98 "Hg10 mi
11:30 PM
Wed, Jul 27
73 °FClear.No wind53%29.98 "Hg6 mi
11:00 PM73 °FClear.1 mph53%29.98 "Hg10 mi
10:30 PM77 °FClear.3 mph47%29.98 "Hg10 mi
10:00 PM77 °FClear.3 mph47%29.98 "Hg10 mi
9:30 PM79 °FSunny.1 mph42%29.95 "Hg10 mi
9:00 PM81 °FSunny.No wind39%29.95 "Hg10 mi
8:30 PM81 °FSunny.No wind39%29.95 "Hg3 mi
8:00 PM82 °FSunny.3 mph37%29.95 "Hg6 mi
7:30 PM84 °FSunny.3 mph35%29.95 "Hg10 mi
7:00 PM86 °FSunny.3 mph31%29.95 "Hg10 mi
6:30 PM88 °FPassing clouds.3 mph29%29.95 "HgN/A
6:00 PM88 °FSunny.3 mph29%29.95 "Hg10 mi
5:30 PM90 °FPassing clouds.6 mph27%29.95 "HgN/A
5:00 PM90 °FPassing clouds.6 mph29%29.95 "HgN/A
4:30 PM90 °FPassing clouds.6 mph29%29.95 "HgN/A
4:00 PM90 °FPassing clouds.8 mph27%29.98 "HgN/A
3:30 PM90 °FPassing clouds.8 mph27%29.98 "HgN/A
3:00 PM90 °FPassing clouds.8 mph27%29.98 "HgN/A
Weather by CustomWeather, © 2016

See weather overviewHow to use our weather pages